This is the latest recevied weather packets stored in our database for station/object M0SDM-10. If no packets are shown the sender has not sent any weather packets the latest 10 day(s).
| Time | Temp. | Humidity | Pressure | Rain* | Wind** | Luminosity | Snow |
|---|---|---|---|---|---|---|---|
| 1788708198 | 19.44° C | 59% | 1007 hPa | - | - | - | - |
| 1788706404 | 19.44° C | 62% | 1007.1 hPa | - | - | - | - |
| 1788704598 | 18.89° C | 63% | 1007.3 hPa | - | - | - | - |
| 1788702798 | 18.89° C | 63% | 1008 hPa | - | - | - | - |
| 1788700998 | 18.33° C | 65% | 1008.6 hPa | - | - | - | - |
| 1788699198 | 18.33° C | 67% | 1008.9 hPa | - | - | - | - |
| 1788697398 | 18.33° C | 63% | 1009.3 hPa | - | - | - | - |
| 1788695597 | 18.33° C | 62% | 1009.5 hPa | - | - | - | - |
| 1788693797 | 17.78° C | 63% | 1009.5 hPa | - | - | - | - |
| 1788691997 | 17.78° C | 65% | 1009.9 hPa | - | - | - | - |
| 1788690197 | 17.78° C | 65% | 1010.1 hPa | - | - | - | - |
| 1788688397 | 17.22° C | 65% | 1010.3 hPa | - | - | - | - |
| 1788686597 | 17.22° C | 66% | 1011 hPa | - | - | - | - |
| 1788684797 | 16.67° C | 67% | 1010.9 hPa | - | - | - | - |
| 1788682997 | 16.11° C | 67% | 1010.9 hPa | - | - | - | - |
| 1788681196 | 16.11° C | 67% | 1010.9 hPa | - | - | - | - |
| 1788679396 | 16.11° C | 67% | 1011.1 hPa | - | - | - | - |
| 1788677596 | 16.11° C | 67% | 1011.1 hPa | - | - | - | - |
| 1788675796 | 16.11° C | 67% | 1011.3 hPa | - | - | - | - |
| 1788673996 | 16.11° C | 67% | 1011.6 hPa | - | - | - | - |
| 1788672193 | 16.11° C | 66% | 1011.6 hPa | - | - | - | - |
| 1788670393 | 16.11° C | 67% | 1011.7 hPa | - | - | - | - |
| 1788668593 | 16.11° C | 67% | 1011.9 hPa | - | - | - | - |
| 1788666793 | 16.11° C | 67% | 1012 hPa | - | - | - | - |
| 1788665022 | 16.11° C | 67% | 1012.1 hPa | - | - | - | - |
* Rain since midnight (hover to see other rain measurements)
** Current wind speed in m/s (hover to see current wind gust speed)